ECHO 1 DEB (METAL OBJ), 51

Orbit data source: Space-Track

ECHO 1 DEB (METAL OBJ), 51 is space debris in LEO originally from a launch on Fri, 12 Aug 1960 UTC launched from the Air Force Eastern Test Range (AFETR). Debris objects in space refer to the collection of defunct objects orbiting the Earth. Examples of debris include non-operational satellites, rocket bodies, and fragments generated from explosions, collisions, or faulty payload assembly.

Loading next visibility...
Identifier
51, 1960-009C
Orbit
LEO
Last TLE update
12 hours ago
Origin
Manufacturer
Kaiser-Fleetwings
Mission
Spacecraft
Bus & Motor
ECHO CANISTER, Unknown motor
Mass
5 kg wet, 5 kg dry
Launch date (UTC)
1960-08-12 (65 years ago)
Launch vehicle
Unknown
Launch site
Air Force Eastern Test Range (AFETR)
Object type
Payload
Rocket body
Debris
Shape & HBR
Unknown
Radar Cross Section
0.600 m², Medium (>0.1 m² and < 1m²)

Expand to show TLE details & history

TLE from 12 hours ago
0 ECHO 1 DEB (METAL OBJ)
1 00051U 60009C   25199.45758310 -.00000107  00000-0 -21948-3 0  9997
2 00051  47.2158   2.0320 0106653 284.0187  74.8764 12.18362192890483
Epoch: 2025-07-18T10:58Z
TLE epoch observation values (Epoch: 2025-07-18T10:58:55.179Z)
Latitude
0.00001°
Longitude
-99.20667°
Altitude
1,578.547 km
Speed
7.09 km/s
True Right ascension
00h 08m 07s
True Declination
0° 00' 00"
Sunlit
Object was in daylight at epoch
Visualization orbit readout
Latitude
17.18114°
Longitude
-84.2009°
Altitude
1,610.542 km
Speed
7.062 km/s
Apparent Right ascension
00h 34m 54s
Apparent Declination
-7° 57' 28"
Sunlit
Object is in daylight
Visualization observer readout
Local Sidereal Time
11:42:50
Azimuth
336.5° NNW
Elevation
-55.988°
Doppler factor
1
Orbital elements
Apogee altitude
1,685.846 km
Perigee altitude
1,515.651 km
Semi-major axis
7,978.885 km
Eccentricity
0.01067
Inclination
47.2158°
RAAN
2.032°
Arg. of periapsis
284.0187°
True anomaly
76.06026°
Mean anomaly
74.8764°
Eccentric anomaly
75.46793°
Mean motion
3.0453 °/min
Orbital period
118.22 mins
BSTAR
-0.00021948
Loading maneuver chart data...
Loading SW <> Apogee altitude chart data...
Loading historical data...
Loading historical data...
Loading historical data...
Loading historical data...
Loading historical data...
Loading historical data...
Loading historical data...
Other satellites on launch #9 in the year 1960 (1960-08-12 UTC)
|